TimeEST,TemperatureF,Dew PointF,Humidity,Sea Level PressureIn,VisibilityMPH,Wind Direction,Wind SpeedMPH,Gust SpeedMPH,PrecipitationIn,Events,Conditions,WindDirDegrees,DateUTC
12:15 AM,26.6,24.8,93,30.06,10.0,Calm,Calm,-,N/A,,Clear,0,2013-02-15 05:15:00
12:35 AM,27.0,25.2,93,30.06,10.0,Calm,Calm,-,N/A,,Clear,0,2013-02-15 05:35:00
12:55 AM,25.9,24.3,94,30.06,10.0,Calm,Calm,-,N/A,,Clear,0,2013-02-15 05:55:00
1:15 AM,26.2,24.6,94,30.06,10.0,Calm,Calm,-,N/A,,Clear,0,2013-02-15 06:15:00
1:55 AM,25.3,23.4,92,30.06,10.0,Calm,Calm,-,N/A,,Clear,0,2013-02-15 06:55:00
2:15 AM,25.7,23.9,93,30.06,10.0,Calm,Calm,-,N/A,,Clear,0,2013-02-15 07:15:00
2:35 AM,24.8,23.0,93,30.05,10.0,Calm,Calm,-,N/A,,Clear,0,2013-02-15 07:35:00
2:55 AM,24.6,23.2,94,30.05,10.0,Calm,Calm,-,N/A,,Clear,0,2013-02-15 07:55:00
3:15 AM,24.6,23.0,94,30.05,10.0,Calm,Calm,-,N/A,,Clear,0,2013-02-15 08:15:00
3:35 AM,25.0,23.5,94,30.06,10.0,Calm,Calm,-,N/A,,Clear,0,2013-02-15 08:35:00
3:55 AM,24.8,23.2,94,30.06,10.0,Calm,Calm,-,N/A,,Clear,0,2013-02-15 08:55:00
4:15 AM,24.4,22.8,94,30.06,10.0,Calm,Calm,-,N/A,,Clear,0,2013-02-15 09:15:00
4:35 AM,24.1,22.5,94,30.06,10.0,Calm,Calm,-,N/A,,Clear,0,2013-02-15 09:35:00
4:55 AM,23.9,22.3,94,30.06,10.0,Calm,Calm,-,N/A,,Clear,0,2013-02-15 09:55:00
5:15 AM,22.8,21.2,93,30.07,10.0,Calm,Calm,-,N/A,,Clear,0,2013-02-15 10:15:00
5:35 AM,23.7,22.1,94,30.07,10.0,Calm,Calm,-,N/A,,Clear,0,2013-02-15 10:35:00
5:55 AM,23.0,21.2,93,30.07,10.0,Calm,Calm,-,N/A,,Clear,0,2013-02-15 10:55:00
6:15 AM,22.8,20.8,92,30.08,10.0,Calm,Calm,-,N/A,,Clear,0,2013-02-15 11:15:00
6:35 AM,23.0,21.2,93,30.09,10.0,Calm,Calm,-,N/A,,Clear,0,2013-02-15 11:35:00
6:55 AM,22.5,20.5,92,30.10,10.0,Calm,Calm,-,N/A,,Clear,0,2013-02-15 11:55:00
7:15 AM,22.6,20.8,93,30.10,10.0,Calm,Calm,-,N/A,,Clear,0,2013-02-15 12:15:00
7:35 AM,22.1,20.3,93,30.10,10.0,Calm,Calm,-,N/A,,Clear,0,2013-02-15 12:35:00
7:55 AM,22.5,20.3,91,30.11,10.0,Calm,Calm,-,N/A,,Clear,0,2013-02-15 12:55:00
8:15 AM,24.1,22.1,92,30.11,10.0,Calm,Calm,-,N/A,,Clear,0,2013-02-15 13:15:00
8:35 AM,26.1,24.4,94,30.11,10.0,Calm,Calm,-,N/A,,Clear,0,2013-02-15 13:35:00
8:55 AM,28.8,26.8,92,30.11,10.0,Calm,Calm,-,N/A,,Clear,0,2013-02-15 13:55:00
9:15 AM,30.9,28.4,90,30.11,10.0,Calm,Calm,-,N/A,,Clear,0,2013-02-15 14:15:00
9:35 AM,32.7,29.1,87,30.10,10.0,Calm,Calm,-,N/A,,Clear,0,2013-02-15 14:35:00
9:55 AM,35.2,30.2,82,30.10,10.0,Calm,Calm,-,N/A,,Clear,0,2013-02-15 14:55:00
10:15 AM,38.3,31.1,75,30.09,10.0,Calm,Calm,-,N/A,,Clear,0,2013-02-15 15:15:00
10:35 AM,41.4,31.5,68,30.08,10.0,Calm,Calm,-,N/A,,Clear,0,2013-02-15 15:35:00
10:55 AM,42.8,32.0,66,30.08,10.0,Calm,Calm,-,N/A,,Clear,0,2013-02-15 15:55:00
11:15 AM,46.0,32.0,58,30.07,10.0,ENE,3.5,-,N/A,,Clear,60,2013-02-15 16:15:00
11:35 AM,48.9,31.6,51,30.06,10.0,ENE,3.5,-,N/A,,Clear,70,2013-02-15 16:35:00
11:55 AM,50.7,30.4,46,30.04,10.0,East,3.5,-,N/A,,Clear,80,2013-02-15 16:55:00
12:15 PM,52.5,29.3,41,30.03,10.0,ENE,3.5,-,N/A,,Clear,70,2013-02-15 17:15:00
12:55 PM,52.9,26.6,36,30.01,10.0,Calm,Calm,-,N/A,,Mostly Cloudy,0,2013-02-15 17:55:00
1:15 PM,53.4,26.2,35,30.00,10.0,Calm,Calm,-,N/A,,Overcast,0,2013-02-15 18:15:00
1:55 PM,54.1,25.5,33,29.98,10.0,WNW,11.5,23.0,N/A,,Overcast,300,2013-02-15 18:55:00
2:15 PM,54.9,27.0,34,29.98,10.0,West,10.4,-,N/A,,Overcast,270,2013-02-15 19:15:00
2:35 PM,53.8,25.5,34,29.97,10.0,West,12.7,16.1,N/A,,Overcast,280,2013-02-15 19:35:00
2:55 PM,53.6,27.1,36,29.97,10.0,West,11.5,-,N/A,,Overcast,260,2013-02-15 19:55:00
3:15 PM,53.2,26.8,36,29.96,10.0,West,5.8,-,N/A,,Overcast,280,2013-02-15 20:15:00
3:35 PM,54.9,25.7,32,29.96,10.0,West,12.7,-,N/A,,Overcast,280,2013-02-15 20:35:00
3:55 PM,53.6,27.0,36,29.95,10.0,West,9.2,-,N/A,,Overcast,270,2013-02-15 20:55:00
4:15 PM,52.7,27.0,37,29.96,10.0,WNW,12.7,18.4,N/A,,Overcast,290,2013-02-15 21:15:00
4:35 PM,51.8,27.1,39,29.97,10.0,WNW,11.5,19.6,N/A,,Overcast,290,2013-02-15 21:35:00
4:55 PM,48.0,33.1,56,29.99,10.0,NNW,11.5,17.3,N/A,,Overcast,340,2013-02-15 21:55:00
5:15 PM,45.7,35.4,67,29.99,10.0,NW,8.1,-,N/A,Rain,Light Rain,320,2013-02-15 22:15:00
5:35 PM,45.5,35.2,67,29.99,10.0,WNW,5.8,-,N/A,,Light Drizzle,290,2013-02-15 22:35:00
5:55 PM,45.1,35.4,69,29.99,10.0,North,6.9,-,N/A,,Light Drizzle,350,2013-02-15 22:55:00
6:15 PM,45.1,35.1,68,30.00,10.0,NNW,8.1,-,N/A,,Overcast,340,2013-02-15 23:15:00
6:35 PM,44.2,35.6,72,30.00,10.0,North,5.8,-,N/A,,Drizzle,360,2013-02-15 23:35:00
6:55 PM,43.7,35.6,73,30.00,10.0,NNW,5.8,-,N/A,,Overcast,340,2013-02-15 23:55:00
7:15 PM,42.8,34.9,74,30.01,10.0,NNW,6.9,17.3,N/A,,Overcast,330,2013-02-16 00:15:00
7:35 PM,41.9,33.6,72,30.02,10.0,NNW,12.7,20.7,N/A,,Overcast,340,2013-02-16 00:35:00
7:55 PM,40.8,32.7,73,30.02,10.0,NNW,8.1,17.3,N/A,Rain,Rain,330,2013-02-16 00:55:00
8:15 PM,40.1,32.0,73,30.02,10.0,NW,11.5,17.3,N/A,Rain,Rain,310,2013-02-16 01:15:00
8:35 PM,40.1,32.0,73,30.02,10.0,WNW,9.2,19.6,N/A,,Drizzle,300,2013-02-16 01:35:00
8:55 PM,39.6,31.5,73,30.02,10.0,NW,8.1,-,N/A,,Overcast,320,2013-02-16 01:55:00
9:15 PM,39.4,31.1,72,30.02,10.0,NNW,5.8,-,N/A,,Scattered Clouds,330,2013-02-16 02:15:00
9:35 PM,39.0,31.1,73,30.02,10.0,WNW,4.6,-,N/A,,Scattered Clouds,290,2013-02-16 02:35:00
9:55 PM,38.1,31.1,76,30.02,10.0,Calm,Calm,-,N/A,,Scattered Clouds,0,2013-02-16 02:55:00
10:15 PM,37.9,31.5,77,30.02,10.0,North,3.5,-,N/A,,Mostly Cloudy,360,2013-02-16 03:15:00
10:35 PM,38.1,31.1,76,30.02,10.0,North,4.6,-,N/A,,Mostly Cloudy,10,2013-02-16 03:35:00
10:55 PM,37.6,31.1,77,30.01,10.0,Calm,Calm,-,N/A,,Mostly Cloudy,0,2013-02-16 03:55:00
11:15 PM,37.8,31.1,77,30.01,10.0,NNW,3.5,-,N/A,,Overcast,340,2013-02-16 04:15:00
11:35 PM,38.1,30.7,75,30.00,10.0,North,8.1,-,N/A,,Overcast,360,2013-02-16 04:35:00
11:55 PM,37.4,29.8,74,29.99,10.0,NW,5.8,-,N/A,,Overcast,310,2013-02-16 04:55:00